Year,Month,Day,Hour,Minute,Value (Times are PST for temperature in C)
2014,10,21,10,48,13.80
2014,10,21,10,49,13.80
2014,10,21,10,50,13.80
2014,10,21,10,51,13.80
2014,10,21,10,52,13.80
2014,10,21,10,53,13.90
2014,10,21,10,54,13.90
2014,10,21,10,55,13.90
2014,10,21,10,56,13.90
2014,10,21,10,57,13.90
2014,10,21,10,58,13.90
2014,10,21,10,59,13.90
2014,10,21,11,00,13.90
2014,10,21,11,01,13.90
2014,10,21,11,02,13.90
2014,10,21,11,03,13.80
2014,10,21,11,04,13.80
2014,10,21,11,05,13.70
2014,10,21,11,06,13.70
2014,10,21,11,07,13.60
2014,10,21,11,08,13.60
2014,10,21,11,09,13.60
2014,10,21,11,10,13.50
2014,10,21,11,11,13.50
2014,10,21,11,12,13.50
2014,10,21,11,13,13.50
2014,10,21,11,14,13.50
2014,10,21,11,15,13.50
2014,10,21,11,16,13.50
2014,10,21,11,17,13.50
2014,10,21,11,18,13.50
2014,10,21,11,19,13.50
2014,10,21,11,20,13.50
2014,10,21,11,21,13.40
2014,10,21,11,22,13.40
2014,10,21,11,23,13.40
2014,10,21,11,24,13.40
2014,10,21,11,25,13.40
2014,10,21,11,26,13.40
2014,10,21,11,27,13.40
2014,10,21,11,28,13.40
2014,10,21,11,29,13.40
2014,10,21,11,30,13.40
2014,10,21,11,31,13.40
2014,10,21,11,32,13.40
2014,10,21,11,33,13.40
2014,10,21,11,34,13.40
2014,10,21,11,35,13.40
2014,10,21,11,36,13.40
2014,10,21,11,37,13.40
2014,10,21,11,38,13.40
2014,10,21,11,39,13.50
2014,10,21,11,40,13.50
2014,10,21,11,41,13.50
2014,10,21,11,42,13.50
2014,10,21,11,43,13.60
2014,10,21,11,44,13.60
2014,10,21,11,45,13.60
2014,10,21,11,46,13.60
2014,10,21,11,47,13.70
2014,10,21,11,48,13.70
2014,10,21,11,49,13.80
2014,10,21,11,50,13.90
2014,10,21,11,51,13.90
2014,10,21,11,52,13.90
2014,10,21,11,53,13.90
2014,10,21,11,54,13.90
2014,10,21,11,55,13.90
2014,10,21,11,56,13.90
2014,10,21,11,57,13.90
2014,10,21,11,58,13.80
2014,10,21,11,59,13.80
2014,10,21,12,00,13.80
2014,10,21,12,01,13.80
2014,10,21,12,02,13.70
2014,10,21,12,03,13.70
2014,10,21,12,04,13.70
2014,10,21,12,05,13.70
2014,10,21,12,06,13.70
2014,10,21,12,07,13.70
2014,10,21,12,08,13.70
2014,10,21,12,09,13.70
2014,10,21,12,10,13.70
2014,10,21,12,11,13.70
2014,10,21,12,12,13.70
2014,10,21,12,13,13.80
2014,10,21,12,14,13.80
2014,10,21,12,15,13.80
2014,10,21,12,16,13.90
2014,10,21,12,17,14.00
2014,10,21,12,18,14.00
2014,10,21,12,19,14.00
2014,10,21,12,20,14.00
2014,10,21,12,21,14.00
2014,10,21,12,22,14.00
2014,10,21,12,23,14.10
2014,10,21,12,24,14.10
2014,10,21,12,25,14.10
2014,10,21,12,26,14.20
2014,10,21,12,27,14.20
2014,10,21,12,28,14.20
2014,10,21,12,29,14.30
2014,10,21,12,30,14.30
2014,10,21,12,31,14.40
2014,10,21,12,32,14.40
2014,10,21,12,33,14.40
2014,10,21,12,34,14.40
2014,10,21,12,35,14.40
2014,10,21,12,36,14.40
2014,10,21,12,37,14.50
2014,10,21,12,38,14.50
2014,10,21,12,39,14.60
2014,10,21,12,40,14.60
2014,10,21,12,41,14.70
2014,10,21,12,42,14.70
2014,10,21,12,43,14.70
2014,10,21,12,44,14.80
2014,10,21,12,45,14.80
2014,10,21,12,46,14.80
2014,10,21,12,47,14.80
2014,10,21,12,48,14.80
2014,10,21,12,49,14.80
2014,10,21,12,50,14.90
2014,10,21,12,51,14.90
2014,10,21,12,52,14.90
2014,10,21,12,53,15.00
2014,10,21,12,54,15.00
2014,10,21,12,55,15.00
2014,10,21,12,56,15.00
2014,10,21,12,57,15.10
2014,10,21,12,58,15.10
2014,10,21,12,59,15.10
2014,10,21,13,00,15.20
2014,10,21,13,01,15.20
2014,10,21,13,02,15.20
2014,10,21,13,03,15.10
2014,10,21,13,04,15.10
2014,10,21,13,05,15.10
2014,10,21,13,06,15.10
2014,10,21,13,07,15.10
2014,10,21,13,08,15.10
2014,10,21,13,09,15.10
2014,10,21,13,10,15.10
2014,10,21,13,11,15.10
2014,10,21,13,12,15.10
2014,10,21,13,13,15.10
2014,10,21,13,14,15.20
2014,10,21,13,15,15.20
2014,10,21,13,16,15.20
2014,10,21,13,17,15.20
2014,10,21,13,18,15.20
2014,10,21,13,19,15.20
2014,10,21,13,20,15.20
2014,10,21,13,21,15.20
2014,10,21,13,22,15.20
2014,10,21,13,23,15.20
2014,10,21,13,24,15.20
2014,10,21,13,25,15.30
2014,10,21,13,26,15.30
2014,10,21,13,27,15.40
2014,10,21,13,28,15.40
2014,10,21,13,29,15.40
2014,10,21,13,30,15.40
2014,10,21,13,31,15.50
2014,10,21,13,32,15.50
2014,10,21,13,33,15.60
2014,10,21,13,34,15.60
2014,10,21,13,35,15.60
2014,10,21,13,36,15.60
2014,10,21,13,37,15.60
2014,10,21,13,38,15.60
2014,10,21,13,39,15.50
2014,10,21,13,40,15.50
2014,10,21,13,41,15.50
2014,10,21,13,42,15.40
2014,10,21,13,43,15.40
2014,10,21,13,44,15.40
2014,10,21,13,45,15.40
2014,10,21,13,46,15.40
2014,10,21,13,47,15.30
2014,10,21,13,48,15.30
2014,10,21,13,49,15.30
2014,10,21,13,50,15.30
2014,10,21,13,51,15.30
2014,10,21,13,52,15.30
2014,10,21,13,53,15.30
2014,10,21,13,54,15.30
2014,10,21,13,55,15.30
2014,10,21,13,56,15.40
2014,10,21,13,57,15.50
2014,10,21,13,58,15.60
2014,10,21,13,59,15.60
2014,10,21,14,00,15.70
2014,10,21,14,01,15.70
2014,10,21,14,02,15.80
2014,10,21,14,03,15.80
2014,10,21,14,04,15.80
2014,10,21,14,05,15.90
2014,10,21,14,06,16.00
2014,10,21,14,07,16.00
2014,10,21,14,08,16.10
2014,10,21,14,09,16.20
2014,10,21,14,10,16.30
2014,10,21,14,11,16.30
2014,10,21,14,12,16.30
2014,10,21,14,13,16.30
2014,10,21,14,14,16.30
2014,10,21,14,15,16.30
2014,10,21,14,16,16.30
2014,10,21,14,17,16.30
2014,10,21,14,18,16.30
2014,10,21,14,19,16.30
2014,10,21,14,20,16.40
2014,10,21,14,21,16.40
2014,10,21,14,22,16.50
2014,10,21,14,23,16.50
2014,10,21,14,24,16.60
2014,10,21,14,25,16.60
2014,10,21,14,26,16.60
2014,10,21,14,27,16.60
2014,10,21,14,28,16.60
2014,10,21,14,29,16.60
2014,10,21,14,30,16.60
2014,10,21,14,31,16.50
2014,10,21,14,32,16.50
2014,10,21,14,33,16.40
2014,10,21,14,34,16.40
2014,10,21,14,35,16.40
2014,10,21,14,36,16.30
2014,10,21,14,37,16.30
2014,10,21,14,38,16.30
2014,10,21,14,39,16.30
2014,10,21,14,40,16.30
2014,10,21,14,41,16.30
2014,10,21,14,42,16.30
2014,10,21,14,43,16.40
2014,10,21,14,44,16.40
2014,10,21,14,45,16.40
2014,10,21,14,46,16.50
2014,10,21,14,47,16.50
2014,10,21,14,48,16.50
2014,10,21,14,49,16.50
2014,10,21,14,50,16.50
2014,10,21,14,51,16.60
2014,10,21,14,52,16.60
2014,10,21,14,53,16.60
2014,10,21,14,54,16.60
2014,10,21,14,55,16.60
2014,10,21,14,56,16.70
2014,10,21,14,57,16.70
2014,10,21,14,58,16.70
2014,10,21,14,59,16.80
2014,10,21,15,00,16.70
2014,10,21,15,01,16.70
2014,10,21,15,02,16.70
2014,10,21,15,03,16.70
2014,10,21,15,04,16.70
2014,10,21,15,05,16.70
2014,10,21,15,06,16.70
2014,10,21,15,07,16.70
2014,10,21,15,08,16.70
2014,10,21,15,09,16.70
2014,10,21,15,10,16.70
2014,10,21,15,11,16.70
2014,10,21,15,12,16.70
2014,10,21,15,13,16.70
2014,10,21,15,14,16.60
2014,10,21,15,15,16.50
2014,10,21,15,16,16.40
2014,10,21,15,17,16.30
2014,10,21,15,18,16.30
2014,10,21,15,19,16.30
2014,10,21,15,20,16.30
2014,10,21,15,21,16.30
2014,10,21,15,22,16.30
2014,10,21,15,23,16.30
2014,10,21,15,24,16.30
2014,10,21,15,25,16.30
2014,10,21,15,26,16.30
2014,10,21,15,27,16.30
2014,10,21,15,28,16.30
2014,10,21,15,29,16.30
2014,10,21,15,30,16.40
2014,10,21,15,31,16.40
2014,10,21,15,32,16.40
2014,10,21,15,33,16.50
2014,10,21,15,34,16.50
2014,10,21,15,35,16.50
2014,10,21,15,36,16.50
2014,10,21,15,37,16.50
2014,10,21,15,38,16.40
2014,10,21,15,39,16.40
2014,10,21,15,40,16.40
2014,10,21,15,41,16.30
2014,10,21,15,42,16.30
2014,10,21,15,43,16.30
2014,10,21,15,44,16.20
2014,10,21,15,45,16.20
2014,10,21,15,46,16.20
2014,10,21,15,47,16.10
2014,10,21,15,48,16.10
2014,10,21,15,49,16.10
2014,10,21,15,50,16.00
2014,10,21,15,51,16.00
2014,10,21,15,52,15.90
2014,10,21,15,53,15.90
2014,10,21,15,54,15.80
2014,10,21,15,55,15.80
2014,10,21,15,56,15.70
2014,10,21,15,57,15.70
2014,10,21,15,58,15.70
2014,10,21,15,59,15.60
2014,10,21,16,00,15.60
2014,10,21,16,01,15.50
2014,10,21,16,02,15.50
2014,10,21,16,03,15.40
2014,10,21,16,04,15.40
2014,10,21,16,05,15.30
2014,10,21,16,06,15.30
2014,10,21,16,07,15.30
2014,10,21,16,08,15.30
2014,10,21,16,09,15.30
2014,10,21,16,10,15.30
2014,10,21,16,11,15.20
2014,10,21,16,12,15.20
2014,10,21,16,13,15.20
2014,10,21,16,14,15.10
2014,10,21,16,15,15.10
2014,10,21,16,16,15.10
2014,10,21,16,17,15.00
2014,10,21,16,18,15.00
2014,10,21,16,19,14.90
2014,10,21,16,20,14.80
2014,10,21,16,21,14.80
2014,10,21,16,22,14.80
2014,10,21,16,23,14.80
2014,10,21,16,24,14.70
2014,10,21,16,25,14.70
2014,10,21,16,26,14.70
2014,10,21,16,27,14.70
2014,10,21,16,28,14.70
2014,10,21,16,29,14.70
2014,10,21,16,30,14.60
2014,10,21,16,31,14.60
2014,10,21,16,32,14.60
2014,10,21,16,33,14.60
2014,10,21,16,34,14.60
2014,10,21,16,35,14.60
2014,10,21,16,36,14.60
2014,10,21,16,37,14.50
2014,10,21,16,38,14.50
2014,10,21,16,39,14.50
2014,10,21,16,40,14.50
2014,10,21,16,41,14.50
2014,10,21,16,42,14.50
2014,10,21,16,43,14.50
2014,10,21,16,44,14.50
2014,10,21,16,45,14.60
2014,10,21,16,46,14.50
2014,10,21,16,47,14.50
2014,10,21,16,48,14.50
2014,10,21,16,49,14.50
2014,10,21,16,50,14.50
2014,10,21,16,51,14.50
2014,10,21,16,52,14.40
2014,10,21,16,53,14.40
2014,10,21,16,54,14.40
2014,10,21,16,55,14.40
2014,10,21,16,56,14.40
2014,10,21,16,57,14.40
2014,10,21,16,58,14.40
2014,10,21,16,59,14.40
2014,10,21,17,00,14.40
2014,10,21,17,01,14.40
2014,10,21,17,02,14.40
2014,10,21,17,03,14.40
2014,10,21,17,04,14.40
2014,10,21,17,05,14.30
2014,10,21,17,06,14.30
2014,10,21,17,07,14.30
2014,10,21,17,08,14.30
2014,10,21,17,09,14.30
2014,10,21,17,10,14.30
2014,10,21,17,11,14.30
2014,10,21,17,12,14.30
2014,10,21,17,13,14.30
2014,10,21,17,14,14.30
2014,10,21,17,15,14.30
2014,10,21,17,16,14.30
2014,10,21,17,17,14.30
2014,10,21,17,18,14.30
2014,10,21,17,19,14.30
2014,10,21,17,20,14.30
2014,10,21,17,21,14.30
2014,10,21,17,22,14.30
2014,10,21,17,23,14.30
2014,10,21,17,24,14.30
2014,10,21,17,25,14.30
2014,10,21,17,26,14.30
2014,10,21,17,27,14.30
2014,10,21,17,28,14.30
2014,10,21,17,29,14.30
